Terminal Aerodrome Forecast
Issued by NWS

Home | Current Version | Previous Version | Text Only | Print | Product List | Glossary On
Versions: 1 2 3 4 5 6 7 8 9 10 11 12 13 14 15 16 17 18
000
FTUS43 KAPX 170300 AAA
TAFMBL
TAF AMD
KMBL 170315Z 1703/1724 12009KT P6SM SCT050 OVC100 WS020/17035KT
     FM171400 13012G21KT P6SM SCT050 BKN100
      AMD LTD TO CLD VIS AND WIND=

USA.gov is the U.S. government's official web portal to all federal, state and local government web resources and services.